Honolulu, HI

2:36 PM HST on April 22, 2018 (GMT -1000)
Honolulu International

Weather History for PHNL - May, 2014

Change the Weather History Date:

Sunday, May 25, 2014

  Actual Average Record
Temperature  
Mean Temperature 75 °F 79 °F  
Max Temperature 80 °F 85 °F 89 °F (1984)
Min Temperature 69 °F 72 °F 66 °F (1959)
Degree Days  
Heating Degree Days 0 0  
Month to date heating degree days 0 0  
Since 1 July heating degree days 0 0  
Cooling Degree Days 10 14  
Month to date cooling degree days 325 312  
Year to date cooling degree days 1519 1419  
Growing Degree Days 24 (Base 50)    
Moisture  
Dew Point 68 °F    
Average Humidity 84    
Maximum Humidity 100    
Minimum Humidity 67    
Precipitation  
Precipitation 1.59 in 0.02 in 1.94 in (2014)
Month to date precipitation 2.99 0.53  
Year to date precipitation 9.61 7.48  
Snow  
Snow 0.00 in - - ()
Month to date snowfall 0.0  
Since 1 July snowfall 0.0  
Snow Depth 0.00 in    
Sea Level Pressure  
Sea Level Pressure 30.02 in    
Wind  
Wind Speed 6 mph (NNW)    
Max Wind Speed 20 mph    
Max Gust Speed 23 mph    
Visibility 8 miles    
Events Rain , Thunderstorm    
T = Trace of Precipitation, MM = Missing Value Source: NWS Daily Summary

Daily Weather History Graph

Daily Weather History Graph

Search for Another Location

Airport or City:

Astronomy

May. 25, 2014 Rise Set
Actual Time 5:50 AM HST 7:07 PM HST
Civil Twilight 5:25 AM HST 7:31 PM HST
Nautical Twilight 4:57 AM HST 8:00 PM HST
Astronomical Twilight 4:27 AM HST 8:30 PM HST
Moon 3:38 AM HST (5/25) 4:38 PM HST (5/25)
Length of Visible Light 14h 05m
Length of Day
13h 16m
Waning Crescent, 9% of the Moon is Illuminated
May 25
Waning Crescent
May 28
New
Jun 5
First Quarter
Jun 12
Full
Jun 19
Last Quarter

Hourly Weather History & Observations

Time (HST) Temp. Heat Index Dew Point Humidity Pressure Visibility Wind Dir Wind Speed Gust Speed Precip Events Conditions
12:21 AM 73.4 °F - 69.8 °F 88% 30.05 in 10.0 mi WNW 3.5 mph - N/A Thunderstorm Thunderstorm
12:53 AM 73.0 °F - 70.0 °F 90% 30.04 in 6.0 mi West 8.1 mph - 0.19 in Rain , Thunderstorm Heavy Thunderstorms and Rain
1:53 AM 70.0 °F - 70.0 °F 100% 30.03 in 4.0 mi NW 5.8 mph - 0.31 in Rain , Thunderstorm Thunderstorms and Rain
2:01 AM 69.8 °F - 69.8 °F 100% 30.03 in 7.0 mi NNW 4.6 mph - 0.02 in Rain Rain
2:53 AM 71.1 °F - 70.0 °F 96% 30.01 in 10.0 mi NNE 3.5 mph - 0.04 in   Mostly Cloudy
3:53 AM 71.1 °F - 71.1 °F 100% 30.00 in 10.0 mi Calm Calm - 0.00 in   Mostly Cloudy
4:53 AM 71.6 °F - 71.6 °F 100% 30.00 in 10.0 mi NW 3.5 mph - N/A   Scattered Clouds
5:53 AM 71.1 °F - 69.1 °F 93% 30.01 in 10.0 mi North 4.6 mph - N/A   Partly Cloudy
6:53 AM 72.0 °F - 71.1 °F 97% 30.03 in 10.0 mi North 5.8 mph - N/A   Scattered Clouds
7:53 AM 75.0 °F - 69.1 °F 82% 30.03 in 10.0 mi North 3.5 mph - N/A   Mostly Cloudy
8:53 AM 78.1 °F - 66.0 °F 66% 30.05 in 10.0 mi Calm Calm - N/A   Mostly Cloudy
9:53 AM 79.0 °F - 66.9 °F 66% 30.06 in 10.0 mi South 5.8 mph - N/A   Mostly Cloudy
10:53 AM 78.1 °F - 68.0 °F 71% 30.03 in 10.0 mi SSE 5.8 mph - N/A   Mostly Cloudy
11:53 AM 79.0 °F - 69.1 °F 72% 30.02 in 10.0 mi SSE 10.4 mph - N/A   Mostly Cloudy
12:53 PM 80.1 °F 83.6 °F 71.1 °F 74% 30.02 in 10.0 mi South 10.4 mph - N/A   Mostly Cloudy
1:53 PM 79.0 °F - 70.0 °F 74% 30.00 in 10.0 mi SSE 12.7 mph - N/A   Overcast
2:20 PM 78.8 °F - 69.8 °F 74% 30.01 in 10.0 mi SSE 10.4 mph - N/A Thunderstorm Thunderstorm
2:53 PM 71.1 °F - 66.9 °F 87% 30.02 in 3.0 mi NW 13.8 mph - 0.05 in Rain Heavy Rain
3:00 PM 69.8 °F - 66.2 °F 88% 30.02 in 2.5 mi WNW 15.0 mph - 0.05 in Rain Heavy Rain
3:03 PM 69.8 °F - 66.2 °F 88% 30.02 in 2.5 mi NW 18.4 mph 21.9 mph 0.07 in Rain Heavy Rain
3:10 PM 69.8 °F - 68.0 °F 94% 30.01 in 0.8 mi NW 13.8 mph - 0.15 in Rain Heavy Rain
3:53 PM 69.1 °F - 66.9 °F 93% 30.02 in 0.8 mi NNW 11.5 mph - 0.88 in Rain Heavy Rain
4:14 PM 69.8 °F - 66.2 °F 88% 30.00 in 0.8 mi North 8.1 mph - 0.20 in Rain Heavy Rain
4:22 PM 69.8 °F - 66.2 °F 88% 29.99 in 10.0 mi NNW 9.2 mph - 0.22 in Rain Light Rain
4:53 PM 70.0 °F - 68.0 °F 93% 30.00 in 10.0 mi NNW 11.5 mph - 0.22 in   Mostly Cloudy
5:53 PM 71.1 °F - 66.9 °F 87% 30.02 in 10.0 mi NW 10.4 mph - 0.00 in Rain Light Rain
6:53 PM 71.1 °F - 66.9 °F 87% 30.03 in 4.0 mi NE 8.1 mph - 0.13 in Rain Heavy Rain
7:53 PM 71.1 °F - 66.9 °F 87% 30.02 in 10.0 mi West 9.2 mph - 0.12 in   Mostly Cloudy
8:53 PM 71.1 °F - 66.9 °F 87% 30.05 in 10.0 mi North 6.9 mph - N/A   Scattered Clouds
9:53 PM 70.0 °F - 66.0 °F 87% 30.06 in 10.0 mi North 5.8 mph - N/A   Partly Cloudy
10:53 PM 71.1 °F - 66.0 °F 84% 30.07 in 10.0 mi North 9.2 mph - N/A   Scattered Clouds
11:53 PM 70.0 °F - 66.0 °F 87% 30.06 in 10.0 mi Calm Calm - N/A   Scattered Clouds